Regional Weather Roundup
Issued by NWS Boston, MA

Home | Current Version | Previous Version | Text Only | Print | Product List | Glossary On
Versions: 1 2 3 4 5 6 7 8 9 10 11 12 13 14 15 16 17 18 19 20 21 22 23 24 25 26 27 28 29 30 31 32 33 34 35 36 37 38 39 40 41 42 43 44 45 46 47 48 49 50
000
ASUS41 KBOX 260710
RWRBOX

REGIONAL WEATHER ROUNDUP
NATIONAL WEATHER SERVICE TAUNTON MA
300 AM EDT SAT JUL 26 2014

NOTE:  "FAIR" INDICATES FEW OR NO CLOUDS BELOW 12,000 FEET WITH NO
SIGNIFICANT WEATHER AND/OR OBSTRUCTIONS TO VISIBILITY.  THE FOLLOWING
OBSERVATION LOCATIONS DO NOT REPORT PRESENT WEATHER...PROVINCETOWN...
SMITHFIELD...BLOCK ISLAND...KEENE...AND OXFORD.

MAZALL-260800-
EASTERN MASSACHUSETTS

CITY           SKY/WX    TMP DP  RH WIND       PRES   REMARKS
BOSTON         CLEAR     67  59  75 SW6       29.97S
BEVERLY        CLEAR     63  57  81 W5        29.96S
LAWRENCE       CLEAR     63  60  90 S7        29.99R
BEDFORD        CLEAR     62  60  93 W3        29.96S
BLUE HILL        N/A     63  57  81 SW10      29.98S
NORWOOD        CLEAR     56  55  97 CALM      29.98R
MARSHFIELD     CLEAR     64  63  94 W5        29.99S
PLYMOUTH       CLEAR     61  57  87 SW3       29.99S
TAUNTON        CLEAR     65  61  87 SW5       29.98S
NEW BEDFORD    CLEAR     61  59  93 SW5       29.98S
$$

MAZALL-260800-
CAPE COD AND THE ISLANDS

CITY           SKY/WX    TMP DP  RH WIND       PRES   REMARKS
FALMOUTH       CLOUDY    64  61  88 SW5       30.00S
HYANNIS        CLEAR     66  61  84 SW9       29.98S
CHATHAM        CLEAR     68  62  81 SW5       29.99F
PROVINCETOWN   CLEAR     64  63  94 SW9       29.98S
NANTUCKET      CLEAR     63  61  93 SW6       30.00F
MARTHAS VNYRD  CLEAR     63  62  97 W5        30.00S
$$

MAZALL-260800-
CENTRAL AND WESTERN MASSACHUSETTS

CITY           SKY/WX    TMP DP  RH WIND       PRES   REMARKS
WORCESTER      CLEAR     62  56  80 W7        30.00S
FITCHBURG      CLEAR     61  57  87 CALM      29.98F
ORANGE         CLEAR     58  56  93 CALM      29.98F
SPRINGFIELD    MOCLDY    63  59  89 S6        29.97F
WESTFIELD      PTCLDY    59  57  93 S5        29.97F
NORTH ADAMS    PTCLDY    56  54  93 CALM      29.99F FOG
PITTSFIELD     PTCLDY    57  56  96 CALM      29.99F FOG
$$

RIZALL-260800-
RHODE ISLAND

CITY           SKY/WX    TMP DP  RH WIND       PRES   REMARKS
PROVIDENCE     CLEAR     65  60  84 W3        29.99S
NEWPORT        CLEAR     66  61  84 CALM      29.99F
BLOCK ISLAND   CLEAR     66  63  88 SW8       30.00S
SMITHFIELD     CLEAR     61  55  82 CALM      30.01S
WESTERLY       CLEAR     65  61  87 CALM      30.00F
$$

CTZALL-260800-
CONNECTICUT

CITY           SKY/WX    TMP DP  RH WIND       PRES   REMARKS
BRADLEY INTL   MOCLDY    64  58  80 S5        29.97F
HARTFORD       CLEAR     64  59  83 S5        29.98F
BRIDGEPORT     PTCLDY    72  67  84 SW5       29.99S
DANBURY        MOCLDY    61  57  87 CALM      30.01S
GROTON         CLEAR     63  62  97 CALM      29.99S
NEW HAVEN      PTCLDY    73  66  78 VRB5      29.99S
CHESTER        FAIR      66  63  88 SW5       30.01S
MERIDEN        CLEAR     60  57  89 CALM      29.99F
WILLIMANTIC    CLEAR     59  56  89 CALM      29.99F
OXFORD         PTCLDY    61  55  82 CALM      30.01F
$$

MEZ002-015-021-024-NHZ003-005-008-011-012-014-VTZ005-008-260800-
NORTHERN NEW ENGLAND

CITY           SKY/WX    TMP DP  RH WIND       PRES   REMARKS
PORTLAND ME    CLEAR     63  57  81 W6        29.93S
BANGOR ME      CLEAR     58  56  93 CALM      29.90S
CONCORD NH     CLEAR     56  55  97 CALM      29.97R
MANCHESTER NH  CLEAR     62  59  90 CALM      29.95S
NASHUA NH      CLEAR     60  58  93 CALM      29.97S
PORTSMOUTH NH  PTCLDY    62  58  87 SW6       29.94S
JAFFREY NH     CLEAR     57  56  96 S5        30.00S FOG
KEENE NH       MOCLDY    57  48  72 CALM      29.98F
BURLINGTON VT  CLEAR     60  56  86 CALM      29.93S
MT. WASHINGTON DRZL/FOG  45  45 100 W43         N/A  VSB 0
$$

NYZ052-076-260800-
EASTERN NEW YORK

CITY           SKY/WX    TMP DP  RH WIND       PRES   REMARKS
ALBANY         PTCLDY    61  58  90 CALM      29.96F
NEW YORK CITY  CLOUDY    72  60  66 SW8       29.98F
$$

ANZALL-260800-
MARINE OBSERVATIONS

STATION/POSITION TIME  TEMP    WIND        PRES    VSBY  WAVE
                       AIR SEA DIR/SP/G                  HT/PER
                 (UTC) (F)     (DEG/KT/KT) (MB)    (MI)  (FT/S)
BOSTON BUOY      NOT AVBL
BUZZARDS BAY     NOT AVBL
NANTUCKET SOUND  NOT AVBL
MASS BAY-STELLWA NOT AVBL
ISLE OF SHOALS   NOT AVBL
S OF BLOCK IS    NOT AVBL
$$

......................KEY.........................
  SKY/WX - SKY CONDITION/PRESENT WEATHER
  TMP    - TEMPERATURE IN FAHRENHEIT
  DWPT   - DEWPOINT IN FAHRENHEIT
  RH     - RELATIVE HUMIDITY IN PERCENT
  WIND   - DIRECTION AND SPEED IN MPH
  PRES   - MEAN SEA LEVEL PRESSURE IN INCHES OF HG
  WCI    - WIND CHILL INDEX
  VSB    - VISIBILITY IN MILES
  HX     - HEAT INDEX
  TC     - TEMPERATURE IN CELSIUS
  VRB    - VARIABLE WIND DIRECTION
  N/A    - NOT AVAILABLE



USA.gov is the U.S. government's official web portal to all federal, state and local government web resources and services.